{"data":{"norad_id":61924,"intl_designator":"2024-207N","name":"STARLINK-32564","alt_names":[],"object_type":"PAYLOAD","status":"ACTIVE","operator":null,"country":"US","launch_date":"2024-11-11","launch_site_code":"AFETR","launch_vehicle":null,"mission":null,"orbit_class":"UNKNOWN","rcs_meters":null,"size_class":null,"mass_kg":null,"dimensions":null,"purposes":["comms"],"wikipedia_slug":null,"has_3d_model":false,"image_url":null,"decayed_at":null,"tle_current":{"epoch":"2026-09-21T22:51:48.070080Z","epoch_age_seconds":60136,"freshness":"FRESH","line1":"1 61924U 24207N   26264.95263970  .00007014  00000+0  26414-3 0  9999","line2":"2 61924  42.9988 257.1813 0000887 274.4200  85.6550 15.27581895104693","mean_motion":15.27581895,"eccentricity":8.87e-5,"inclination_deg":42.9988,"raan_deg":257.1813,"arg_perigee_deg":274.42,"mean_anomaly_deg":85.655,"bstar":0.00026414,"rev_number":10469,"period_min":94.266631773611,"perigee_km":482.43483503039,"apogee_km":483.65200843721,"semimajor_km":6861.1804217338,"source":"CELESTRAK","updated_at":"2026-09-22T09:00:49.451084Z"}}}